RH
43 47 43 46 68 84 86 86 82 76 79 87 95 99 99 100 101 100 101 101 100 101 101 101 102 103 100 93 75 47 27 21 20 22 27 28 28 29 31 33 35 38
25 29 28 32 50 67 74 77 77 80 89 96 99 100 100 100 100 100 101 101 100 101 101 101 103 103 98 89 70 42 26 23 22 25 28 28 29 30 32 36 40 43
22 25 26 29 38 53 67 76 80 88 97 99 100 101 100 101 101 100 101 101 100 100 100 102 104 102 94 82 65 44 31 28 26 27 29 29 29 31 35 39 43 47
24 25 28 34 39 47 61 72 80 91 98 100 102 102 100 101 102 102 101 100 100 100 101 103 105 101 92 80 66 52 43 36 30 29 30 30 30 34 39 41 45 49
28 28 33 38 36 42 58 70 78 90 99 101 100 98 100 102 103 103 101 100 101 101 101 103 104 100 92 82 72 64 54 43 34 31 31 32 34 37 41 44 48 51
29 30 35 37 33 36 48 57 66 83 98 101 98 97 99 102 103 104 104 102 101 101 101 102 101 98 92 86 81 75 61 45 36 33 33 36 39 42 46 49 52 54
26 30 33 37 38 38 42 46 53 71 90 97 99 100 101 100 101 104 104 102 101 101 101 101 98 95 91 88 88 84 70 51 39 36 37 41 44 48 52 54 56 56
26 29 30 34 38 42 48 55 62 75 87 90 93 99 102 100 99 102 102 101 101 101 101 101 97 93 90 87 90 93 83 65 48 39 41 46 50 54 57 58 59 58
26 29 29 31 33 35 42 49 57 72 83 85 85 92 100 100 97 100 101 100 101 101 101 101 98 95 92 89 93 97 91 80 63 47 45 51 57 61 64 65 63 61
24 25 26 29 29 29 34 38 42 55 73 82 82 84 95 100 97 98 101 101 101 101 101 101 100 98 91 90 98 100 95 89 76 57 48 55 63 67 71 71 66 64
29 25 23 24 24 28 38 47 45 44 57 77 84 85 94 99 98 99 100 100 101 102 101 101 101 97 91 92 99 100 95 92 81 64 54 59 67 70 73 73 68 68
42 35 29 25 22 23 35 54 58 44 40 58 76 86 96 97 96 99 100 100 101 101 101 103 102 96 92 95 97 93 94 94 83 67 58 62 69 72 73 72 69 71
52 47 40 34 27 22 23 41 51 35 24 39 59 78 96 96 89 94 100 99 100 101 101 103 104 99 97 100 99 93 95 96 84 69 62 66 71 74 76 73 71 74
56 54 51 45 39 31 22 25 29 21 20 34 45 63 92 101 92 93 100 100 100 101 100 101 104 104 103 104 101 99 99 97 85 72 69 72 74 77 79 77 78 83
60 57 55 52 49 42 30 22 22 22 26 34 37 43 66 91 98 98 99 97 96 100 100 100 103 104 104 105 103 102 102 95 84 75 75 79 79 81 83 81 86 93
70 64 58 54 51 48 40 28 22 23 24 30 40 39 42 66 90 99 100 98 96 100 101 100 102 102 102 103 104 103 101 92 81 77 83 86 84 87 92 90 95 100
77 74 67 59 53 50 48 38 26 23 22 24 36 41 37 47 65 81 97 103 98 99 101 99 100 103 102 101 102 104 98 86 77 80 90 94 88 91 100 100 99 102
82 79 71 64 58 52 51 46 34 25 22 22 25 30 30 33 42 58 80 99 100 98 101 101 98 101 102 100 102 102 89 76 77 85 96 99 91 91 100 102 99 102
85 89 86 75 65 59 54 52 43 28 23 22 20 22 25 29 43 55 63 83 101 102 101 102 99 100 102 100 103 98 73 63 80 94 100 101 92 90 99 101 98 102
74 86 100 94 84 78 70 64 53 33 24 25 21 23 24 25 46 63 56 59 86 102 103 103 100 99 100 100 103 92 62 55 79 98 102 101 92 89 99 102 98 102
74 77 96 102 97 90 80 75 65 43 28 27 24 24 25 22 38 64 64 51 63 88 101 104 102 100 101 101 100 84 58 52 73 94 100 98 92 92 100 101 99 101
89 81 92 103 99 86 74 70 71 61 44 35 27 23 26 25 26 44 56 50 54 76 92 99 102 101 100 102 94 74 52 45 61 86 98 96 93 98 102 100 100 101
97 87 92 101 96 84 73 67 72 77 66 47 33 23 24 29 27 27 35 39 46 62 77 91 102 104 103 100 82 57 42 37 46 69 89 95 96 99 101 100 100 101
94 85 91 101 96 88 85 80 81 89 84 61 38 24 21 28 31 27 27 30 33 38 48 66 87 97 95 81 56 36 33 35 37 49 71 90 97 99 100 100 100 101
83 77 89 99 99 98 100 98 94 98 98 79 47 26 22 28 33 31 27 26 27 25 26 35 49 57 55 44 30 26 31 35 35 42 62 85 96 99 100 100 100 101
84 79 87 93 100 104 103 104 99 92 95 90 60 32 25 29 35 38 33 26 25 24 23 25 29 30 28 25 25 28 30 33 35 42 61 84 95 99 101 100 100 100
Wind_Speed
48 49 49 49 48 47 45 44 45 44 43 43 42 39 39 42 44 45 48 51 53 54 55 55 54 52 51 51 50 49 47 45 45 45 46 48 49 51 53 53 54 56
46 47 47 46 45 44 43 42 42 41 42 42 38 35 38 41 43 45 48 51 52 54 54 53 51 49 50 50 49 48 46 45 45 44 45 47 49 51 52 52 54 55
45 46 46 44 43 41 40 39 39 40 41 39 35 34 38 40 43 45 48 50 52 53 51 49 48 47 48 48 47 46 45 46 45 44 45 46 48 50 50 51 53 54
43 43 42 41 40 38 37 36 37 38 37 36 35 37 39 41 43 45 47 49 52 51 48 46 45 46 47 47 46 45 46 46 45 44 44 46 47 48 49 50 52 53
43 41 40 39 38 36 35 34 34 34 34 34 35 37 40 42 42 44 47 49 51 50 46 44 44 45 46 46 45 45 45 46 45 44 44 45 46 47 48 50 52 53
43 41 40 38 37 36 34 34 33 32 34 34 35 36 41 43 42 43 47 49 50 48 43 42 43 44 45 45 44 44 45 45 44 43 43 44 46 47 48 50 51 52
43 41 40 39 38 36 35 34 33 33 35 37 37 37 41 43 42 43 46 49 49 45 42 41 43 44 45 44 44 44 44 44 44 44 43 44 45 46 48 50 51 52
42 41 40 39 38 37 36 35 34 34 35 37 39 39 41 42 43 43 45 47 47 43 40 41 42 44 44 44 44 43 43 44 44 44 44 44 45 46 48 50 51 53
42 41 40 39 38 37 36 36 36 36 36 37 38 39 40 42 43 44 44 45 45 42 39 40 42 42 43 43 43 43 44 44 45 45 45 45 46 46 47 50 51 53
42 40 39 38 37 37 36 35 35 35 36 37 37 37 38 39 42 44 44 43 42 41 39 40 41 41 42 43 43 44 45 46 47 47 47 47 46 46 47 49 51 53
44 42 40 39 37 36 35 34 34 34 35 36 36 36 35 35 39 42 42 42 42 41 40 40 39 40 41 42 43 45 46 48 49 49 48 47 47 47 47 49 52 53
46 44 42 40 38 36 33 32 32 33 34 34 35 34 33 34 37 40 41 44 44 42 39 39 38 38 40 40 42 45 47 48 50 49 48 46 46 47 47 49 52 54
48 46 44 42 40 38 35 32 31 32 32 33 33 32 31 33 37 39 41 44 45 42 39 38 37 37 38 40 42 45 46 48 50 50 47 46 46 47 48 49 51 54
50 48 46 44 42 41 38 35 32 30 30 30 31 31 31 32 36 38 40 43 44 42 39 37 37 37 38 39 41 43 45 46 49 49 47 46 46 48 49 50 52 54
51 49 47 46 45 43 41 38 35 32 31 29 29 30 32 34 35 36 37 40 43 44 42 40 39 39 39 40 40 41 44 46 47 49 47 46 46 48 49 51 53 55
51 51 50 49 47 44 42 40 37 34 33 31 29 30 32 35 36 36 34 36 40 42 43 44 43 40 39 40 40 41 44 45 46 47 48 46 46 48 50 53 55 55
52 52 52 51 49 46 44 41 39 36 34 33 31 30 30 33 36 36 34 34 36 38 39 43 45 42 39 40 42 42 44 44 45 46 47 47 46 48 51 53 55 54
52 51 52 52 51 48 45 42 40 38 35 33 32 31 30 30 32 35 35 34 35 37 37 38 41 41 40 41 42 42 43 44 44 45 46 47 46 47 50 53 53 52
51 48 47 47 48 47 45 42 40 38 36 34 33 32 31 29 29 32 35 35 36 38 39 37 38 40 39 39 41 43 43 44 43 43 45 47 46 46 49 52 52 51
49 46 44 43 43 42 41 40 39 38 37 35 34 33 32 31 30 31 33 34 35 38 40 39 40 40 38 38 41 43 43 43 43 42 44 46 45 45 48 51 52 50
46 46 46 45 43 40 39 38 38 38 37 36 35 35 34 32 32 32 33 33 33 36 39 40 42 41 38 38 42 43 42 43 43 42 45 46 44 45 48 50 51 50
45 46 49 50 48 44 42 41 40 38 38 38 36 36 36 34 32 33 33 33 33 34 38 41 42 42 40 40 43 43 41 42 42 43 45 45 43 45 48 49 50 50
46 45 46 47 48 46 44 43 42 40 39 39 38 37 37 35 33 33 33 33 33 35 38 40 42 43 43 43 43 41 40 41 42 43 45 44 43 45 47 48 50 50
44 43 42 41 42 43 41 41 42 41 39 39 39 38 38 37 35 33 33 33 34 35 37 38 41 43 42 41 40 39 39 40 41 42 43 43 43 44 46 47 49 49
41 40 38 37 38 38 38 38 40 40 39 40 40 39 38 37 36 35 34 34 34 35 35 35 37 39 37 36 37 37 38 38 39 39 40 40 42 43 45 46 48 48
43 41 38 37 37 36 36 37 39 39 38 39 39 39 37 37 37 36 35 34 34 34 34 33 34 35 35 35 36 36 36 36 36 37 38 39 40 42 44 46 47 47
Wind_Direction
295 295 296 297 296 296 297 298 300 300 300 299 298 297 293 290 289 289 289 292 294 296 298 300 300 301 302 305 306 307 307 308 309 314 317 320 322 323 325 327 330 331
298 297 298 298 297 298 299 301 301 302 301 299 297 297 295 292 291 291 291 293 294 296 298 300 302 303 305 307 309 309 309 309 311 315 318 321 322 324 326 329 331 332
299 298 298 298 298 299 300 302 303 302 301 299 299 302 302 297 292 290 291 293 295 297 299 302 304 306 307 310 311 311 310 310 312 316 319 321 323 325 328 331 333 333
302 300 299 299 298 299 300 301 301 301 302 301 299 300 300 295 289 289 290 293 296 297 300 304 306 307 309 311 312 312 311 312 313 316 319 322 323 326 330 332 333 334
303 302 302 301 300 299 299 299 299 299 300 299 293 292 293 291 287 286 289 293 296 297 300 305 307 308 310 312 312 313 313 313 314 317 320 322 324 328 331 333 334 334
303 303 302 302 301 301 299 298 296 295 295 295 292 291 293 292 289 287 288 291 294 295 299 305 307 308 310 312 313 314 315 316 317 318 321 323 326 330 332 334 334 334
303 304 303 302 301 300 300 299 297 293 291 291 291 292 293 294 293 289 286 288 291 293 297 305 307 306 308 311 313 315 317 318 319 320 322 324 327 330 333 334 334 334
303 304 304 303 302 300 299 297 296 292 288 287 287 289 292 295 294 291 285 284 288 290 295 304 305 304 307 310 312 315 318 320 320 321 323 325 327 330 332 333 334 335
302 303 304 303 302 300 298 295 293 291 288 286 283 284 289 293 294 291 283 280 284 287 294 301 302 302 307 310 312 314 317 319 320 321 324 326 327 329 331 333 334 335
300 301 302 303 302 300 298 295 293 292 289 287 284 281 285 289 291 289 281 276 282 287 293 299 300 302 306 308 310 313 315 317 317 318 322 325 326 327 330 332 334 334
297 298 299 300 301 300 298 296 295 293 290 289 287 283 283 286 289 287 279 277 283 286 290 297 299 302 305 306 309 311 313 315 316 316 320 323 324 326 329 331 333 333
296 296 297 297 298 298 297 295 293 293 291 290 288 285 284 285 287 287 280 278 283 284 288 295 298 300 304 304 307 309 310 313 314 315 318 322 324 326 328 331 332 333
295 295 295 295 295 294 293 291 290 292 293 291 287 284 284 284 284 286 283 279 280 282 287 293 295 298 301 301 304 307 307 310 312 313 316 320 324 326 327 329 331 333
292 293 293 293 293 292 289 287 288 291 293 292 288 283 282 282 282 284 284 282 281 282 286 291 292 294 296 297 300 303 305 308 310 312 314 317 321 325 325 326 329 330
290 290 290 291 291 290 287 285 285 287 289 290 289 285 281 280 281 282 283 284 285 284 285 288 289 290 292 295 298 300 303 306 308 310 313 315 319 322 323 324 326 327
291 290 289 289 289 288 286 283 282 283 285 286 287 287 284 281 281 281 282 285 288 288 287 286 286 288 291 293 295 298 301 304 306 308 311 315 317 318 321 323 323 324
292 291 289 289 288 287 285 283 280 280 282 283 282 282 283 282 281 282 284 286 289 291 291 289 285 285 288 290 292 297 300 302 303 305 309 313 315 317 319 320 321 322
293 291 289 288 287 286 284 282 279 277 278 279 279 277 278 281 282 283 284 285 287 289 293 292 285 282 285 289 293 299 301 301 301 303 307 310 313 316 318 318 319 321
293 290 287 286 285 283 281 278 276 276 275 275 276 275 275 278 280 282 282 282 283 286 289 292 289 285 285 289 295 301 301 300 299 302 306 308 310 314 316 317 318 320
289 286 284 284 284 281 279 276 273 273 273 273 273 273 274 275 275 277 280 280 280 283 286 289 289 289 288 289 295 299 299 297 296 299 303 306 309 313 314 315 317 319
282 282 282 283 283 280 280 279 275 272 271 271 271 271 272 272 272 272 274 277 278 279 284 285 285 287 289 289 293 296 296 295 295 296 300 304 307 311 312 313 315 318
278 279 281 283 282 281 281 280 277 274 271 270 270 269 269 269 269 269 269 272 274 273 276 279 282 284 286 286 289 291 292 294 294 294 297 301 305 308 309 311 314 317
278 280 282 282 280 280 279 276 274 272 271 269 268 266 267 267 267 268 269 269 270 270 270 274 278 279 280 281 285 288 290 292 292 291 293 297 301 305 307 309 312 316
279 282 282 279 277 277 276 273 269 268 268 268 267 265 266 267 267 268 269 269 269 270 271 273 275 277 279 281 283 286 288 291 292 292 292 293 297 302 304 307 310 314
281 284 282 280 277 275 275 272 268 265 265 267 267 266 265 266 267 268 269 269 268 269 271 274 275 278 280 281 283 286 289 291 293 293 292 292 295 299 302 305 309 313
282 284 282 282 280 275 275 275 271 266 265 265 266 266 266 266 267 267 268 269 269 268 270 272 275 279 281 283 285 288 290 292 293 294 293 292 295 298 301 305 309 312